Orbital Elements at Epoch 2459200.5 (2020-Dec-17.0) TDB
Reference: JPL 11 (heliocentric ecliptic J2000)
Element | Value | Uncertainty (1-sigma) | Units |
e | .1317142242245812 | 1.2716e-07 | |
a | 2.166251493682121 | 1.2905e-08 | au |
q | 1.88092535871644 | 2.6799e-07 | au |
i | 5.977014104037836 | 6.0742e-06 | deg |
node | 3.143684990490424 | 7.7253e-05 | deg |
peri | 39.11765063523526 | 9.5768e-05 | deg |
M | 135.0663309832069 | 3.9128e-05 | deg |
tp | 2458763.575556780936 (2019-Oct-07.07555678) | 0.00012873 | TDB |
period | 1164.55965312643 3.19 | 1.0406e-05 2.849e-08 | d yr |
n | .3091297204342667 | 2.7624e-09 | deg/d |
Q | 2.451577628647802 | 1.4605e-08 | au |
|
| | Orbit Determination Parameters
Additional Information
|